Weather History for Barnwell, SC

Change the Weather History Date:

Saturday, October 1, 2011

  Actual Average (KOGB) Record (KOGB)
Temperature  
Mean Temperature 61 °F 70 °F  
Max Temperature 71 °F 81 °F 94 °F (1986)
Min Temperature 51 °F 59 °F 40 °F (1967)
Degree Days  
Heating Degree Days 4 1  
Month to date heating degree days 1  
Since 1 July heating degree days 5  
Cooling Degree Days 0 6  
Month to date cooling degree days 6  
Year to date cooling degree days 2000  
Growing Degree Days 11 (Base 50)    
Moisture  
Dew Point 42 °F    
Average Humidity 51    
Maximum Humidity 82    
Minimum Humidity 28    
Precipitation  
Precipitation 0.00 in 0.15 in 3.63 in (1989)
Month to date precipitation 0.15  
Year to date precipitation 37.25  
Sea Level Pressure  
Sea Level Pressure 29.91 in    
Wind  
Wind Speed 5 mph (West)    
Max Wind Speed 14 mph    
Max Gust Speed 21 mph    
Visibility 10 miles    
Events      
T = Trace of Precipitation, MM = Missing Value Source: NWS Daily Summary

Daily Weather History Graph

Daily Weather History Graph

Search for Another Location

Airport:

Trip Planner

Search our weather history database for the weather conditions in past years. The results will help you decide how hot, cold, wet, or windy it might be!

Date:

Astronomy

Oct. 01, 2011 Rise Set
Actual Time 7:19 AM EDT 7:10 PM EDT
Civil Twilight 6:54 AM EDT 7:35 PM EDT
Nautical Twilight 6:26 AM EDT 8:03 PM EDT
Astronomical Twilight 5:57 AM EDT 8:32 PM EDT
Moon 12:07 PM EDT (10/1) 10:23 PM EDT (10/1)
Length of Visible Light 12h 40m
Length of Day
11h 50m
Waxing Crescent, 24% of the Moon is Illuminated
Oct 1
Waxing Crescent
Oct 3
First Quarter
Oct 11
Full
Oct 19
Last Quarter
Oct 26
New

Hourly Weather History & Observations

Time (EDT) Temp. Dew Point Humidity Pressure Visibility Wind Dir Wind Speed Gust Speed Precip Events Conditions
12:55 AM 64.4 °F 46.4 °F 52% 29.86 in 10.0 mi WNW 8.1 mph - N/A   Clear
1:15 AM 62.6 °F 46.4 °F 55% 29.86 in 10.0 mi WNW 6.9 mph - N/A   Clear
1:35 AM 60.8 °F 46.4 °F 59% 29.86 in 10.0 mi West 4.6 mph - N/A   Clear
1:55 AM 60.8 °F 46.4 °F 59% 29.86 in 10.0 mi West 4.6 mph - N/A   Clear
2:15 AM 60.8 °F 46.4 °F 59% 29.86 in 10.0 mi Calm Calm - N/A   Clear
2:35 AM 60.8 °F 46.4 °F 59% 29.87 in 10.0 mi Calm Calm - N/A   Clear
2:55 AM 59.0 °F 46.4 °F 63% 29.87 in 10.0 mi Calm Calm - N/A   Clear
3:15 AM 57.2 °F 46.4 °F 67% 29.86 in 10.0 mi Calm Calm - N/A   Clear
3:55 AM 57.2 °F 46.4 °F 67% 29.87 in 10.0 mi Calm Calm - N/A   Clear
4:15 AM 55.4 °F 46.4 °F 72% 29.88 in 10.0 mi Calm Calm - N/A   Clear
4:35 AM 53.6 °F 48.2 °F 82% 29.88 in 10.0 mi Calm Calm - N/A   Clear
4:55 AM 55.4 °F 46.4 °F 72% 29.88 in 10.0 mi Calm Calm - N/A   Clear
5:15 AM 55.4 °F 46.4 °F 72% 29.89 in 10.0 mi Calm Calm - N/A   Clear
5:35 AM 53.6 °F 46.4 °F 77% 29.88 in 10.0 mi Calm Calm - N/A   Clear
5:55 AM 53.6 °F 46.4 °F 77% 29.89 in 10.0 mi Calm Calm - N/A   Clear
6:15 AM 53.6 °F 46.4 °F 77% 29.90 in 10.0 mi Calm Calm - N/A   Clear
6:35 AM 51.8 °F 46.4 °F 82% 29.91 in 10.0 mi Calm Calm - N/A   Clear
6:55 AM 51.8 °F 44.6 °F 76% 29.92 in 10.0 mi Calm Calm - N/A   Clear
7:15 AM 51.8 °F 44.6 °F 76% 29.92 in 10.0 mi Calm Calm - N/A   Clear
7:35 AM 51.8 °F 44.6 °F 76% 29.92 in 10.0 mi Calm Calm - N/A   Clear
7:55 AM 51.8 °F 44.6 °F 76% 29.92 in 10.0 mi Calm Calm - N/A   Clear
8:15 AM 53.6 °F 44.6 °F 72% 29.93 in 10.0 mi Calm Calm - N/A   Clear
8:35 AM 55.4 °F 44.6 °F 67% 29.94 in 10.0 mi West 5.8 mph - N/A   Clear
8:55 AM 57.2 °F 42.8 °F 59% 29.94 in 10.0 mi WNW 6.9 mph - N/A   Clear
9:15 AM 59.0 °F 41.0 °F 51% 29.95 in 10.0 mi WNW 6.9 mph - N/A   Clear
9:35 AM 60.8 °F 41.0 °F 48% 29.95 in 10.0 mi WNW 9.2 mph - N/A   Clear
9:55 AM 62.6 °F 41.0 °F 45% 29.95 in 10.0 mi West 11.5 mph - N/A   Clear
10:15 AM 62.6 °F 39.2 °F 42% 29.95 in 10.0 mi West 8.1 mph - N/A   Clear
10:35 AM 64.4 °F 39.2 °F 40% 29.95 in 10.0 mi West 8.1 mph - N/A   Clear
10:55 AM 64.4 °F 39.2 °F 40% 29.95 in 10.0 mi WNW 10.4 mph 16.1 mph N/A   Clear
11:15 AM 64.4 °F 39.2 °F 40% 29.96 in 10.0 mi West 10.4 mph - N/A   Clear
11:35 AM 64.4 °F 39.2 °F 40% 29.96 in 10.0 mi West 9.2 mph 20.7 mph N/A   Clear
11:55 AM 66.2 °F 39.2 °F 37% 29.95 in 10.0 mi West 5.8 mph - N/A   Clear
12:15 PM 66.2 °F 37.4 °F 35% 29.95 in 10.0 mi West 10.4 mph - N/A   Clear
12:35 PM 66.2 °F 37.4 °F 35% 29.95 in 10.0 mi West 4.6 mph - N/A   Clear
12:55 PM 68.0 °F 37.4 °F 33% 29.94 in 10.0 mi SSW 6.9 mph - N/A   Clear
1:15 PM 69.8 °F 39.2 °F 33% 29.94 in 10.0 mi WSW 6.9 mph - N/A   Clear
1:35 PM 69.8 °F 37.4 °F 31% 29.94 in 10.0 mi West 9.2 mph - N/A   Clear
1:55 PM 69.8 °F 35.6 °F 28% 29.93 in 10.0 mi WSW 4.6 mph 16.1 mph N/A   Clear
2:15 PM 69.8 °F 35.6 °F 28% 29.92 in 10.0 mi West 9.2 mph - N/A   Clear
2:35 PM 69.8 °F 35.6 °F 28% 29.92 in 10.0 mi West 8.1 mph - N/A   Clear
2:55 PM 71.6 °F 37.4 °F 29% 29.91 in 10.0 mi WSW 8.1 mph - N/A   Clear
3:15 PM 71.6 °F 37.4 °F 29% 29.91 in 10.0 mi SW 9.2 mph - N/A   Clear
3:35 PM 71.6 °F 37.4 °F 29% 29.91 in 10.0 mi West 9.2 mph - N/A   Clear
3:55 PM 71.6 °F 37.4 °F 29% 29.92 in 10.0 mi WSW 8.1 mph - N/A   Clear
4:15 PM 71.6 °F 37.4 °F 29% 29.91 in 10.0 mi West 6.9 mph - N/A   Clear
4:35 PM 71.6 °F 39.2 °F 31% 29.92 in 10.0 mi West 5.8 mph 17.3 mph N/A   Clear
4:55 PM 71.6 °F 37.4 °F 29% 29.92 in 10.0 mi West 13.8 mph 20.7 mph N/A   Clear
5:15 PM 69.8 °F 35.6 °F 28% 29.92 in 10.0 mi West 12.7 mph 19.6 mph N/A   Clear
5:35 PM 69.8 °F 35.6 °F 28% 29.93 in 10.0 mi West 15.0 mph 18.4 mph N/A   Clear
5:55 PM 69.8 °F 35.6 °F 28% 29.94 in 10.0 mi WNW 12.7 mph 17.3 mph N/A   Clear
6:15 PM 69.8 °F 37.4 °F 31% 29.94 in 10.0 mi WNW 10.4 mph - N/A   Clear
6:35 PM 66.2 °F 33.8 °F 30% 29.96 in 10.0 mi WNW 9.2 mph 18.4 mph N/A   Clear
6:55 PM 64.4 °F 33.8 °F 32% 29.97 in 10.0 mi WNW 17.3 mph 21.9 mph N/A   Clear
7:15 PM 62.6 °F 33.8 °F 34% 29.98 in 10.0 mi WNW 8.1 mph - N/A   Clear
7:35 PM 60.8 °F 33.8 °F 36% 29.99 in 10.0 mi NW 6.9 mph - N/A   Clear
7:55 PM 60.8 °F 33.8 °F 36% 29.99 in 10.0 mi WNW 6.9 mph - N/A   Clear
8:15 PM 57.2 °F 35.6 °F 44% 30.00 in 10.0 mi Calm Calm - N/A   Clear
8:35 PM 55.4 °F 37.4 °F 51% 30.00 in 10.0 mi Calm Calm - N/A   Clear
8:55 PM 53.6 °F 39.2 °F 58% 30.01 in 10.0 mi Calm Calm - N/A   Clear
9:15 PM 53.6 °F 39.2 °F 58% 30.01 in 10.0 mi Calm Calm - N/A   Clear
9:35 PM 53.6 °F 37.4 °F 54% 30.02 in 10.0 mi Calm Calm - N/A   Clear
9:55 PM 53.6 °F 39.2 °F 58% 30.02 in 10.0 mi Calm Calm - N/A   Clear
10:15 PM 51.8 °F 39.2 °F 62% 30.02 in 10.0 mi Calm Calm - N/A   Clear
10:35 PM 51.8 °F 39.2 °F 62% 30.03 in 10.0 mi West 5.8 mph - N/A   Clear
10:55 PM 51.8 °F 39.2 °F 62% 30.04 in 10.0 mi Calm Calm - N/A   Clear
11:35 PM 51.8 °F 37.4 °F 58% 30.05 in 10.0 mi Calm Calm - N/A   Clear
11:55 PM 50.0 °F 39.2 °F 66% 30.05 in 10.0 mi Calm Calm - N/A   Clear